DELTA 1 DEB, 10707

Orbit data source: Space-Track

DELTA 1 DEB, 10707 is space debris in LEO originally from a launch on Thu, 29 Jul 1976 UTC launched from the Air Force Western Test Range (AFWTR). Debris objects in space refer to the collection of defunct objects orbiting the Earth. Examples of debris include non-operational satellites, rocket bodies, and fragments generated from explosions, collisions, or faulty payload assembly.

Loading next visibility...
Identifier
10707, 1976-077AC
Orbit
LEO
Last TLE update
9 hours ago
Origin
Manufacturer
Unknown
Mission
Spacecraft
Bus & Motor
Unknown
Mass
Unknown
Launch date (UTC)
1976-07-29 (49 years ago)
Launch vehicle
Unknown
Launch site
Air Force Western Test Range (AFWTR)
Object type
Payload
Rocket body
Debris
Shape & HBR
Unknown
Radar Cross Section
Small (<0.1 m²)

Expand to show TLE details & history

TLE from 9 hours ago
0 DELTA 1 DEB
1 10707U 76077AC  25129.01486877  .00000323  00000-0  41988-2 0  9992
2 10707 102.2165 163.9473 0257601 270.5134 116.2974 11.98211478129756
Epoch: 2025-05-09T00:21Z
Definitive object data (Epoch: 2025-05-09T00:21:24.661Z)
Latitude
28.73212°
Longitude
-75.26687°
Altitude
1,788.377 km
Speed
6.948 km/s
True Right ascension
10h 28m 39s
True Declination
28° 36' 20"
Sunlit
Object was in daylight at TLE epoch
Visualization TLE readout
Latitude
16.18118°
Longitude
115.44177°
Altitude
1,744.696 km
Speed
6.984 km/s
Apparent Right ascension
01h 21m 50s
Apparent Declination
-11° 18' 45"
Sunlit
Object is in daylight
Visualization observer readout
Local Sidereal Time
17:18:10
Azimuth
78.389° E
Elevation
-30.817°
Doppler factor
1
Orbital elements
Apogee altitude
1,894.264 km
Perigee altitude
1,478.772 km
Semi-major axis
8,064.655 km
Eccentricity
0.0257601
Inclination
102.2165°
RAAN
163.9473°
Arg. of periapsis
270.5134°
True anomaly
118.90565°
Mean anomaly
116.2974°
Eccentric anomaly
117.60532°
Mean motion
2.99685 °/min
BSTAR
0.0041988
Orbital period
120.13 mins
Loading maneuver chart data...
Loading SW <> Apogee altitude chart data...
Loading historical data...
Loading historical data...
Loading historical data...
Loading historical data...
Loading historical data...
Loading historical data...
Loading historical data...

DELTA 1 DEB Visibility forecast

Observer location: undefined°, undefined°

Span
Click to sort rows by Start time (UTC) header in descending order
Start Az.
Max El. time (UTC)
Max El. Az.
Max El.
End time (UTC)
End Az.
6 mins2025-05-09 12:58:53.375Z65.361° ENE2025-05-09 13:01:53.375Z83.505° E12.201°2025-05-09 13:04:53.375Z102.224° ESE
18 mins2025-05-09 14:52:53.375Z24.197° NE2025-05-09 15:01:53.375Z109.446° ESE42.723°2025-05-09 15:10:53.375Z186.46° SSW
16 mins2025-05-09 16:50:53.375Z1.021° NNE2025-05-09 16:58:53.375Z303.083° NW29.602°2025-05-09 17:06:53.375Z246.62° WSW
15 mins2025-05-10 00:23:53.375Z107.202° ESE2025-05-10 00:30:53.375Z56.053° ENE28.297°2025-05-10 00:38:53.375Z359.49° N
18 mins2025-05-10 02:19:53.375Z171.913° S2025-05-10 02:27:53.375Z252.506° W43.575°2025-05-10 02:37:53.375Z338.371° N
8 mins2025-05-10 04:23:53.375Z251.495° W2025-05-10 04:27:53.375Z277.089° WNW13.667°2025-05-10 04:31:53.375Z301.25° NW
|